Location: *
(41.7492°S, 135.4150°W)
Time: 02:54:28
(UTC+00:00)

ITAMSAT 1 - Pass Details

Date: 29 June 2022
Orbit: 784 x 795 km, 98.9° (Epoch: 09 August)

Event Time Altitude Azimuth Distance (km) Brightness Sun altitude
Rises 14:35:29 0° 61° (ENE) 3,303 12.3 -20.6°
Reaches altitude 10° 14:38:34 10° 80° (E) 2,381 11.4 -20.0°
Maximum altitude 14:41:52 17° 120° (ESE) 1,932 10.2 -19.4°
Drops below altitude 10° 14:45:11 10° 159° (SSE) 2,395 10.2 -18.8°
Sets 14:48:17 0° 178° (S) 3,331 10.8 -18.2°
